DECAYED

OBJECT AR, 57205 (Decayed)

Orbit data source: Space-Track

You're viewing an Uncataloged Satellite

Recently launched and/or uncataloged satellites may have evolving metadata. Metadata may include but not limited to: Owner, Maufacturer, Bus, Motor, and Mission.

OBJECT AR, 57205 was a satellite in SSO that was launched on Tue, 27 Jun 2023 UTC via a SOYUZ-2-1B launch vehicle from the Vostochny Cosmodrome (VOSTO). Unknown objects in Earth's orbit typically refer to objects detected orbiting the Earth but have not yet been identified or cataloged. These objects could be anything from previously untracked satellites, spent rocket stages, debris from satellite collisions, or even natural meteoroids temporarily captured by Earth's gravity. This object's orbit decayed before it could be identified.

Loading next visibility...
Identifier
57205, 2023-091AR
Orbit
Decayed
Country
Flag of TBDTBD
Related business
None
Manufacturer
Sputniks
Mission
Decayed Amateur Communications
Bus & Motor
CUBESAT 3U, Unknown motor
Mass
2.01 kg wet, 2.01 kg dry
Launch date (UTC)
2023-06-27 (3 years ago)
Launch vehicle
SOYUZ-2-1B
Launch site
Vostochny Cosmodrome (VOSTO)
Object type
Unknown
Shape & HBR
Box, 0.1 m
Radar Cross Section
0.035 m², Medium (>0.1 m² and < 1m²)

Expand to show TLE details & history
Last TLE update: 8 months ago

TLE from 8 months ago
0 OBJECT AR
1 57205U 23091AR  25330.04508387  .02560824  15364-1  23058-2 0  9999
2 57205  97.5006  46.0293 0007328 297.5164  62.5377 16.16662325134596
Epoch: 2025-11-26T01:04Z
TLE epoch observation values (Epoch: 2025-11-26T01:04:55.246Z)
Latitude
-0.00007°
Longitude
-35.42287°
Altitude
229.616 km
Speed
7.77 km/s
True Right ascension
03h 04m 07s
True Declination
0° 00' 00"
Sunlit
Object was in full shadow at epoch
Visualization orbit readout
Latitude
Unknown
Longitude
Unknown
Altitude
Unknown
Speed
Unknown
Apparent Right ascension
Unknown
Apparent Declination
Unknown
Sunlit
N/A
Visualization observer readout
Local Sidereal Time
05:56:33
Azimuth
Unknown
Elevation
Unknown
Doppler factor
Unknown
Orbital elements
Apogee altitude
230.311 km
Perigee altitude
220.633 km
Semi-major axis
6,603.609 km
Eccentricity
0.00073
Inclination
97.5006°
RAAN
46.0293°
Arg. of periapsis
297.5164°
True anomaly
62.61224°
Mean anomaly
62.5377°
Eccentric anomaly
62.57497°
Mean motion
4.04456 °/min
Orbital period
89.01 mins
BSTAR
0.0023058
Loading maneuver chart data...
Computing Atmospheric mass density...
Loading historical data...
Loading historical data...
Loading historical data...
Loading historical data...
Loading historical data...
Loading historical data...
Loading historical data...

Documentation

Showing up to 5 results
|